Regional Weather Roundup
Issued by NWS

Home | Current Version | Previous Version | Text Only | Print | Product List | Glossary Off
Versions: 1 2 3 4 5 6 7 8 9 10 11 12 13 14 15 16 17 18 19 20 21 22 23 24 25 26 27 28 29 30 31 32 33 34 35 36 37 38 39 40 41 42 43 44 45 46 47 48 49 50

000
ASUS43 KIND 041309
RWRIN

WEATHER ROUNDUP FOR INDIANA
NATIONAL WEATHER SERVICE INDIANAPOLIS IN
900 AM EDT TUE AUG 04 2015

NOTE: "FAIR" INDICATES FEW OR NO CLOUDS BELOW 12,000 FEET WITH NO
SIGNIFICANT WEATHER AND/OR OBSTRUCTIONS TO VISIBILITY.

* - STATION DOES NOT REPORT WEATHER SUCH AS PRECIPITATION OR FOG.

+ - STATION NOT QUALITY CONTROLLED BY THE NATIONAL WEATHER SERVICE.
    USE DATA WITH CAUTION...ESPECIALLY DEWPOINT AND RELATIVE
    HUMIDITY OBSERVATIONS.

INZ001>003-010>013-019-020-041400-
NORTHWEST INDIANA

CITY           SKY/WX    TMP DP  RH WIND       PRES   REMARKS
GARY /AIRPORT/ MOSUNNY   70  61  73 CALM      29.97R
KNOX *+        SUNNY     63  59  88 CALM      29.96S
LA PORTE +     SUNNY     69  64  82 CALM      29.97S
MICHIGAN CITY+ SUNNY     66  59  77 CALM      29.97R
MONTICELLO +   SUNNY     63  59  87 SW3       29.97S
RENSSELAER +   SUNNY     64  63  94 W6        29.98R
VALPARAISO     SUNNY     68  59  73 SW3       29.98R

$$

LMZ046-743>745-041400-
SOUTHERN LAKE MICHIGAN

STATION/POSITION TIME  TEMP    WIND        PRES    WAVE
                       AIR SEA DIR/SP/G            HT
                 (UTC) (F)     (DEG/KT/KT) (MB)    (FT)
BURNS HARBOR     1200   65     190/  5/  7 1014.9R
MICHIGAN CITY    1200   64     170/  3/  4   N/A
5NW MICH CITY    1300   71 73  290/  4/  8   N/A     2

$$

INZ004-005-014>016-021>024-041400-
NORTH CENTRAL INDIANA

CITY           SKY/WX    TMP DP  RH WIND       PRES   REMARKS
ELKHART        MOSUNNY   64  59  82 W5        29.97R
GOSHEN         MOSUNNY   64  59  83 SW3       29.96S
LOGANSPORT +   SUNNY     64  55  72 SW5       29.99R
PERU/GRISSOM   SUNNY     67  60  77 SW9       29.98R
ROCHESTER +    SUNNY     68  59  73 SW3       29.98R
SOUTH BEND     MOSUNNY   67  60  78 CALM      29.97R
WARSAW +       SUNNY     64  59  82 W5        29.97R

$$

INZ006>009-017-018-025>027-041400-
NORTHEAST INDIANA

CITY           SKY/WX    TMP DP  RH WIND       PRES   REMARKS
ANGOLA *+      MOSUNNY   68  59  73 W3        29.96R
AUBURN +       SUNNY     66  55  68 CALM      29.97S
FORT WAYNE     MOSUNNY   67  59  75 SW8       29.98R
HUNTINGTON +   SUNNY     67  59  75 W5        29.97S

$$

INZ028-029-035-036-043>045-051>053-041400-
WEST CENTRAL INDIANA

CITY           SKY/WX    TMP DP  RH WIND       PRES   REMARKS
CRAWFORDSVL +  SUNNY     65  59  82 CALM      29.96
GREENCASTLE +  SUNNY     68  59  73 CALM      30.00S
LAFAYETTE      SUNNY     64  59  83 VRB3      29.98F
TERRE HAUTE    MOSUNNY   72  66  81 CALM      29.99S

$$

INZ030>032-037>040-046>048-054>057-064-065-041400-
CENTRAL INDIANA

CITY           SKY/WX    TMP DP  RH WIND       PRES   REMARKS
ANDERSON       SUNNY     66  57  72 CALM      30.00
COLUMBUS       SUNNY     66  63  88 CALM      29.99S
FRANKFORT +    SUNNY     67  67  99 S5        30.01S
GREENWOOD *+   SUNNY     70  59  68 CALM      30.00S
INDIANAPOLIS   MOSUNNY   71  60  68 CALM      29.99R
-EAGLE CREEK   SUNNY     71  60  68 CALM      29.98F
KOKOMO *+      SUNNY     70  61  73 SW6       29.98F
MARION +       SUNNY     65  60  85 SW5       29.99S
MT COMFORT *+  SUNNY     70  70 100 CALM      29.99S
SHELBYVILLE    SUNNY     70  63  78 CALM      29.98F
ZIONSVILLE +   SUNNY     69  61  77 CALM      30.00S

$$

INZ033-034-041-042-049-050-058-059-041400-
EAST CENTRAL INDIANA

CITY           SKY/WX    TMP DP  RH WIND       PRES   REMARKS
MUNCIE         SUNNY     67  57  70 SW3       29.99R

$$

INZ060-061-067>069-081>083-085>088-041400-
SOUTHWEST INDIANA

CITY           SKY/WX    TMP DP  RH WIND       PRES   REMARKS
EVANSVILLE     CLOUDY    75  68  78 CALM      29.98S
HUNTINGBURG *+ CLOUDY    72  68  88 SW5       30.00R
WASHINGTON +   PTSUNNY   72  65  79 CALM      29.99R THUNDER

$$

INZ062-063-066-070>080-084-089>092-041400-
SOUTH CENTRAL AND SOUTHEAST INDIANA

CITY           SKY/WX    TMP DP  RH WIND       PRES   REMARKS
BLOOMINGTON    SUNNY     72  63  73 CALM      30.00R
MADISON *+     MOSUNNY   70  68  94 CALM      30.01R
NORTH VERNON + SUNNY     70  70 100 CALM      29.99R
SEYMOUR +      SUNNY     75  64  69 CALM      29.99R

$$




USA.gov is the U.S. government's official web portal to all federal, state and local government web resources and services.